| time (UTC) | temp C | wind direction | speed KPH | gust KPH | rain 1hr cm | rain 24hr cm | rain mn cm | humidity % | barometer mb |
| 20260506145322 | 10 | 21 | 0.0 | 3.2 | 0.00 | 0.00 | 0.00 | 59 | 1012.9 |
| 20260506143821 | 10 | 255 | 1.6 | 6.4 | 0.00 | 0.00 | 0.00 | 61 | 1012.4 |
| 20260506142319 | 10 | 280 | 3.2 | 14.5 | 0.00 | 0.00 | 0.00 | 62 | 1012.6 |
| 20260506140818 | 11 | 287 | 1.6 | 3.2 | 0.00 | 0.00 | 0.00 | 63 | 1012.3 |
| 20260506135314 | 10 | 257 | 3.2 | 6.4 | 0.00 | 0.00 | 0.00 | 64 | 1012.1 |
| 20260506133810 | 9 | 280 | 0.0 | 1.6 | 0.00 | 0.00 | 0.00 | 68 | 1012.3 |
| 20260506132307 | 10 | 308 | 1.6 | 1.6 | 0.00 | 0.00 | 0.00 | 66 | 1012.0 |
| 20260506130803 | 10 | 241 | 1.6 | 3.2 | 0.00 | 0.00 | 0.00 | 67 | 1011.8 |
| 20260506125305 | 8 | 312 | 1.6 | 3.2 | 0.00 | 0.00 | 0.00 | 71 | 1011.7 |
| 20260506123800 | 8 | 296 | 1.6 | 4.8 | 0.00 | 0.00 | 0.00 | 71 | 1011.3 |
| 20260506122258 | 7 | 252 | 1.6 | 3.2 | 0.00 | 0.00 | 0.00 | 74 | 1011.4 |
| 20260506120756 | 7 | 325 | 0.0 | 3.2 | 0.00 | 0.00 | 0.00 | 75 | 1011.1 |
| 20260506115255 | 7 | 345 | 0.0 | 4.8 | 0.00 | 0.00 | 0.00 | 74 | 1011.2 |
| 20260506113754 | 7 | 272 | 0.0 | 1.6 | 0.00 | 0.00 | 0.00 | 74 | 1011.1 |
| 20260506112251 | 6 | 36 | 0.0 | 3.2 | 0.00 | 0.00 | 0.00 | 74 | 1010.8 |
| 20260506110749 | 6 | 314 | 0.0 | 3.2 | 0.00 | 0.00 | 0.00 | 72 | 1010.3 |
| 20260506105245 | 7 | 303 | 0.0 | 0.0 | 0.00 | 0.00 | 0.00 | 70 | 1010.4 |
| 20260506103744 | 7 | 258 | 1.6 | 3.2 | 0.00 | 0.00 | 0.00 | 68 | 1010.2 |
| 20260506102242 | 7 | 306 | 1.6 | 9.7 | 0.00 | 0.00 | 0.00 | 66 | 1009.9 |
| 20260506100739 | 7 | 291 | 0.0 | 3.2 | 0.00 | 0.00 | 0.00 | 66 | 1010.0 |
| 20260506095237 | 7 | 264 | 0.0 | 1.6 | 0.00 | 0.00 | 0.00 | 65 | 1009.8 |
| 20260506093737 | 7 | 261 | 0.0 | 0.0 | 0.00 | 0.00 | 0.00 | 65 | 1009.5 |
| 20260506092235 | 7 | 252 | 0.0 | 3.2 | 0.00 | 0.00 | 0.00 | 63 | 1009.7 |
| 20260506090733 | 7 | 261 | 0.0 | 4.8 | 0.00 | 0.00 | 0.00 | 62 | 1009.3 |
| 20260506085228 | 7 | 280 | 0.0 | 1.6 | 0.00 | 0.00 | 0.00 | 62 | 1009.1 |
| 20260506083724 | 8 | 283 | 0.0 | 3.2 | 0.00 | 0.00 | 0.00 | 61 | 1009.6 |
| 20260506082220 | 8 | 345 | 0.0 | 3.2 | 0.00 | 0.00 | 0.00 | 61 | 1009.3 |
| 20260506080719 | 8 | 249 | 1.6 | 4.8 | 0.00 | 0.00 | 0.00 | 59 | 1009.2 |
| 20260506072211 | 8 | 324 | 0.0 | 4.8 | 0.00 | 0.00 | 0.00 | 59 | 1009.2 |
| 20260506070709 | 8 | 252 | 1.6 | 1.6 | 0.00 | 0.00 | 0.00 | 58 | 1009.2 |
| 20260506062200 | 8 | 300 | 0.0 | 4.8 | 0.00 | 0.00 | 0.00 | 57 | 1009.4 |
| 20260506060658 | 8 | 225 | 1.6 | 3.2 | 0.00 | 0.00 | 0.00 | 57 | 1009.6 |
| 20260506050649 | 8 | 284 | 0.0 | 0.0 | 0.00 | 0.00 | 0.00 | 58 | 1009.6 |
| 20260506043642 | 9 | 270 | 0.0 | 4.8 | 0.00 | 0.00 | 0.00 | 55 | 1009.2 |
| 20260506042143 | 9 | 205 | 0.0 | 1.6 | 0.00 | 0.00 | 0.00 | 56 | 1009.4 |
| 20260506040641 | 9 | 241 | 0.0 | 0.0 | 0.00 | 0.00 | 0.00 | 57 | 1009.3 |
| 20260506035137 | 9 | 238 | 0.0 | 0.0 | 0.00 | 0.41 | 0.41 | 58 | 1009.2 |
| 20260506033634 | 9 | 239 | 0.0 | 0.0 | 0.00 | 0.41 | 0.41 | 55 | 1009.4 |
| 20260506032131 | 9 | 252 | 3.2 | 3.2 | 0.00 | 0.41 | 0.41 | 54 | 1009.4 |
| 20260506030629 | 9 | 255 | 1.6 | 1.6 | 0.00 | 0.41 | 0.41 | 54 | 1009.6 |
| 20260506025124 | 10 | 279 | 0.0 | 3.2 | 0.00 | 0.41 | 0.41 | 53 | 1009.4 |
| 20260506023621 | 9 | 235 | 0.0 | 1.6 | 0.00 | 0.41 | 0.41 | 53 | 1009.7 |
| 20260506022118 | 10 | 269 | 3.2 | 3.2 | 0.00 | 0.41 | 0.41 | 52 | 1009.5 |
| 20260506020616 | 10 | 257 | 0.0 | 1.6 | 0.00 | 0.41 | 0.41 | 53 | 1009.6 |
| 20260506015113 | 10 | 320 | 1.6 | 3.2 | 0.00 | 0.41 | 0.41 | 50 | 1009.3 |
| 20260506013611 | 10 | 265 | 0.0 | 3.2 | 0.00 | 0.41 | 0.41 | 49 | 1009.1 |
| 20260506012106 | 10 | 288 | 1.6 | 4.8 | 0.00 | 0.41 | 0.41 | 48 | 1009.0 |
| 20260506010605 | 10 | 268 | 0.0 | 3.2 | 0.00 | 0.41 | 0.41 | 49 | 1009.0 |
| 20260506005101 | 10 | 266 | 3.2 | 3.2 | 0.00 | 0.41 | 0.41 | 46 | 1009.0 |
| 20260506003557 | 11 | 274 | 3.2 | 4.8 | 0.00 | 0.41 | 0.41 | 47 | 1009.1 |
| 20260506002056 | 11 | 254 | 0.0 | 3.2 | 0.00 | 0.41 | 0.41 | 48 | 1009.0 |
| 20260506000553 | 11 | 271 | 3.2 | 3.2 | 0.00 | 0.41 | 0.41 | 54 | 1008.6 |
| 20260505235051 | 11 | 271 | 0.0 | 3.2 | 0.00 | 0.41 | 0.41 | 53 | 1008.4 |
| 20260505233548 | 11 | 169 | 0.0 | 4.8 | 0.00 | 0.41 | 0.41 | 53 | 1008.4 |
| 20260505232046 | 11 | 288 | 3.2 | 4.8 | 0.00 | 0.41 | 0.41 | 52 | 1008.2 |
| 20260505230544 | 11 | 268 | 6.4 | 9.7 | 0.00 | 0.41 | 0.41 | 51 | 1008.3 |
| 20260505225039 | 12 | 302 | 3.2 | 4.8 | 0.00 | 0.41 | 0.41 | 50 | 1008.4 |
| 20260505223536 | 12 | 263 | 1.6 | 4.8 | 0.00 | 0.41 | 0.41 | 52 | 1008.4 |
| 20260505222036 | 12 | 293 | 1.6 | 4.8 | 0.00 | 0.41 | 0.41 | 58 | 1008.2 |
| 20260505220533 | 12 | 311 | 1.6 | 9.7 | 0.00 | 0.41 | 0.41 | 58 | 1008.5 |
| 20260505215032 | 12 | 256 | 0.0 | 0.0 | 0.00 | 0.41 | 0.41 | 65 | 1008.4 |
| 20260505213530 | 12 | 216 | 0.0 | 6.4 | 0.00 | 0.41 | 0.41 | 68 | 1008.2 |
| 20260505212026 | 12 | 223 | 1.6 | 1.6 | 0.00 | 0.41 | 0.41 | 70 | 1008.3 |
| 20260505210522 | 12 | 300 | 1.6 | 4.8 | 0.00 | 0.41 | 0.41 | 70 | 1008.2 |
| 20260505205020 | 11 | 203 | 3.2 | 4.8 | 0.00 | 0.41 | 0.41 | 72 | 1008.4 |
| 20260505203517 | 11 | 291 | 1.6 | 4.8 | 0.00 | 0.41 | 0.41 | 73 | 1008.5 |
| 20260505202012 | 11 | 220 | 0.0 | 1.6 | 0.00 | 0.41 | 0.41 | 76 | 1008.5 |
| 20260505200510 | 11 | 279 | 3.2 | 4.8 | 0.00 | 0.41 | 0.41 | 75 | 1008.6 |
| 20260505195007 | 11 | 39 | 0.0 | 6.4 | 0.00 | 0.41 | 0.41 | 77 | 1008.6 |
| 20260505193502 | 11 | 195 | 0.0 | 1.6 | 0.00 | 0.41 | 0.41 | 78 | 1008.6 |
| 20260505192000 | 11 | 279 | 0.0 | 3.2 | 0.00 | 0.41 | 0.41 | 79 | 1008.8 |
| 20260505190456 | 10 | 217 | 1.6 | 1.6 | 0.00 | 0.41 | 0.41 | 80 | 1008.8 |
| 20260505184951 | 10 | 224 | 4.8 | 4.8 | 0.00 | 0.41 | 0.41 | 80 | 1008.9 |
| 20260505183448 | 11 | 218 | 1.6 | 9.7 | 0.00 | 0.41 | 0.41 | 82 | 1008.5 |
| 20260505181943 | 10 | 225 | 3.2 | 11.3 | 0.00 | 0.41 | 0.41 | 84 | 1008.4 |
| 20260505180440 | 10 | 259 | 0.0 | 3.2 | 0.00 | 0.41 | 0.41 | 85 | 1008.2 |
| 20260505174936 | 10 | 205 | 1.6 | 3.2 | 0.00 | 0.41 | 0.41 | 88 | 1007.9 |
| 20260505173432 | 9 | 203 | 1.6 | 4.8 | 0.00 | 0.41 | 0.41 | 89 | 1008.0 |
| 20260505171932 | 9 | 243 | 1.6 | 4.8 | 0.00 | 0.41 | 0.41 | 89 | 1007.9 |
| 20260505170428 | 10 | 225 | 3.2 | 3.2 | 0.18 | 0.41 | 0.41 | 90 | 1007.9 |
| 20260505164927 | 9 | 203 | 1.6 | 4.8 | 0.00 | 0.36 | 0.36 | 89 | 1008.1 |
| 20260505163427 | 10 | 236 | 1.6 | 6.4 | 0.18 | 0.36 | 0.36 | 87 | 1008.4 |
| 20260505161924 | 10 | 221 | 3.2 | 4.8 | 0.30 | 0.30 | 0.30 | 83 | 1008.6 |
| 20260505160422 | 11 | 153 | 4.8 | 6.4 | 0.00 | 0.23 | 0.23 | 75 | 1008.2 |
| 20260505151913 | 13 | 288 | 0.0 | 3.2 | 0.00 | 0.23 | 0.23 | 62 | 1007.2 |
| 20260505150410 | 13 | 244 | 3.2 | 6.4 | 0.00 | 0.23 | 0.23 | 58 | 1006.9 |